Location: Noordwijk
(52.2400°N, 4.4500°E)
Time: 10:52:34
(UTC+00:00)

FO-29 - Visible Passes

Search period start: 30 November 2022 00:00
Search period end: 10 December 2022 00:00
Orbit: 800 x 1321 km, 98.5° (Epoch: 29 November)

Date Brightness Start Highest point End Pass type
(mag) Time Alt. Az. Time Alt. Az. Time Alt. Az.
30 Nov 12.5 03:55:33 10° NE 03:58:28 13° ENE 04:01:15 10° ESE visible
30 Nov 10.1 05:38:23 10° NNE 05:45:12 64° E 05:51:09 10° S visible
30 Nov 11.4 17:39:41 10° SSW 17:47:03 42° W 17:54:12 10° NNW visible
01 Dec 11.5 04:43:50 10° NNE 04:49:32 29° E 04:54:38 10° SSE visible
01 Dec 9.6 06:28:29 10° NNE 06:35:14 65° WNW 06:41:08 10° SSW visible
01 Dec 10.3 16:43:51 10° SSE 16:51:45 81° WSW 16:59:20 10° NNW visible
01 Dec 12.4 18:32:01 10° SW 18:37:46 22° W 18:43:25 10° NW visible
02 Dec 12.6 03:51:05 10° NE 03:53:17 12° ENE 03:55:24 10° E visible
02 Dec 10.2 05:33:27 10° NNE 05:40:05 60° E 05:45:54 10° S visible
02 Dec 11.3 17:34:37 10° SSW 17:42:03 44° W 17:49:11 10° NNW visible
03 Dec 11.6 04:38:58 10° NNE 04:44:22 26° E 04:49:14 10° SE visible
03 Dec 9.5 06:23:31 10° NNE 06:30:10 68° WNW 06:35:59 10° SSW visible
03 Dec 10.2 16:38:53 10° SSE 16:46:47 84° WSW 16:54:16 10° NNW visible
03 Dec 12.3 18:26:49 10° SW 18:32:43 23° W 18:38:27 10° NW visible
04 Dec 12.6 03:47:01 10° ENE 03:48:05 10° ENE 03:49:08 10° E visible
04 Dec 10.3 05:28:30 10° NNE 05:34:58 56° E 05:40:39 10° S visible
04 Dec 11.2 17:29:34 10° SSW 17:37:02 46° W 17:44:09 10° NNW visible
04 Dec 13.0 19:23:03 10° W 19:23:51 10° WNW 19:24:39 10° WNW visible
05 Dec 11.7 04:34:06 10° NNE 04:39:12 24° E 04:43:50 10° SE visible
05 Dec 9.5 06:18:32 10° NNE 06:25:05 72° WNW 06:30:49 10° SSW visible
05 Dec 10.1 16:33:56 10° SSE 16:41:48 88° WSW 16:49:11 10° NNW visible
05 Dec 12.2 18:21:38 10° SW 18:27:40 24° W 18:33:28 10° NW visible
06 Dec 10.3 05:23:33 10° NNE 05:29:51 52° E 05:35:23 10° S visible
06 Dec 11.1 17:24:31 10° S 17:32:01 48° W 17:39:06 10° NNW visible
06 Dec 12.9 19:17:01 10° W 19:18:45 11° WNW 19:20:27 10° WNW visible
07 Dec 11.8 04:29:14 10° NE 04:34:01 22° E 04:38:25 10° SE visible
07 Dec 9.4 06:13:33 10° NNE 06:19:59 76° WNW 06:25:38 10° SSW visible
07 Dec 10.1 16:29:00 10° SSE 16:36:50 89° ENE 16:44:06 10° NNW visible
07 Dec 12.2 18:16:29 10° SW 18:22:36 25° W 18:28:28 10° NW visible
08 Dec 10.4 05:18:36 10° NNE 05:24:42 48° E 05:30:06 10° S visible
08 Dec 11.0 17:19:30 10° S 17:27:01 50° W 17:34:02 10° NNW visible
08 Dec 12.9 19:11:22 10° W 19:13:38 11° WNW 19:15:52 10° WNW visible
09 Dec 11.9 04:24:23 10° NE 04:28:50 20° E 04:32:58 10° SE visible
09 Dec 9.4 06:08:33 10° NNE 06:14:53 80° WNW 06:20:27 10° SSW visible
09 Dec 10.0 16:24:04 10° SSE 16:31:51 85° ENE 16:39:00 10° NNW visible
09 Dec 12.1 18:11:20 10° SW 18:17:33 26° W 18:23:26 10° NW visible
